[[{"header":{"parameterUnit":"m.s-1","parameterCategory":1,"la1":30.2991,"la2":30.254,"lo1":-89.0895,"lo2":-89.0444,"dy":0.0017,"dx":0.0017,"nx":28,"ny":28,"refTime":"2024-04-27T03:00:00:Z","depth":0,"parameterNumber":2,"parameterNumberName":"U-component_of_WINDS"},"data":[0,0,0,0,0,0,0,0,0,0,0,0,0,0,0,0,0,0,0,0,0,0,0,0,0,0,0,0,0,0,0,0,0,0,0,0,0,0,0,0,0,0,0,0,0,0,0,0,0,0,0,0,0,0,0,0,0,0,-5.2147,-5.2149,0,-5.2321,-5.2323,-5.2324,-5.2323,-5.2321,-5.2318,-5.2316,-5.2492,-5.2499,-5.2506,0,0,0,0,0,0,0,0,0,0,0,0,0,-5.1813,-5.182,-5.2147,-5.2149,-5.2151,-5.232,-5.2323,-5.2325,-5.2323,-5.2321,-5.2318,-5.2315,-5.249,-5.2498,-5.2506,0,0,0,0,0,0,0,0,0,0,0,0,0,-5.197,-5.1822,-5.2147,-5.2171,-5.2175,-5.232,-5.2323,-5.2326,-5.2324,-5.2321,-5.2317,-5.2314,-5.2487,-5.2497,-5.2508,-5.2639,0,0,-5.2539,-5.2543,0,0,0,0,0,0,0,0,-5.1961,-5.1982,-5.2165,-5.2169,-5.2174,-5.2297,-5.227,-5.2431,-5.2325,-5.2267,-5.2316,-5.2312,-5.243,-5.2445,-5.2485,-5.2648,-5.2655,-5.254,-5.2546,-5.255,-5.2553,0,0,0,0,0,0,0,-5.195,-5.1974,-5.2216,-5.2168,-5.2173,-5.2173,-5.2191,-5.23,-5.2366,-5.2272,-5.2272,-5.2293,-5.2432,-5.2475,-5.2489,-5.2658,-5.2539,-5.2548,-5.2555,-5.2559,-5.2937,-5.2941,0,0,0,0,0,0,-5.1934,-5.1965,-5.221,-5.2221,-5.2057,-5.2182,-5.2202,-5.2261,-5.2364,-5.2377,-5.2296,-5.2292,-5.2459,-5.2477,-5.2495,-5.2655,-5.255,-5.256,-5.2566,-5.2933,-5.2938,-5.2942,0,0,0,0,0,0,-5.1927,-5.1956,-5.2203,-5.2093,-5.2125,-5.2191,-5.2257,-5.2266,-5.2309,-5.2382,-5.2394,-5.2328,-5.2457,-5.2481,-5.2603,-5.2661,-5.2564,-5.2574,-5.2929,-5.2935,-5.294,-5.2977,0,0,0,0,0,0,-5.1918,-5.1954,-5.2004,-5.2095,-5.2131,-5.2309,-5.226,-5.2272,-5.2327,-5.2324,-5.2416,-5.2427,-5.2456,-5.2588,-5.2614,-5.2674,-5.2582,-5.2924,-5.2931,-5.2938,-5.2971,-5.2983,-5.2994,0,0,0,0,0,-5.1906,-5.2008,-5.2007,-5.2036,-5.2196,-5.2312,-5.2333,-5.2364,-5.2332,-5.2383,-5.243,-5.2424,-5.2652,-5.2601,-5.2629,-5.2693,-5.292,-5.2929,-5.2938,-5.2966,-5.2981,-5.2994,0,0,0,0,0,0,-5.1922,-5.202,-5.202,-5.2154,-5.2225,-5.2312,-5.2377,-5.238,-5.246,-5.2454,-5.249,-5.251,-5.2633,-5.2676,-5.2618,-5.2826,-5.2782,-5.2797,-5.2793,-5.2808,-5.282,-5.2806,-5.259,0,0,0,0,0,-5.1941,-5.2028,-5.2109,-5.222,-5.2255,-5.231,-5.2362,-5.2381,-5.2455,-5.2485,-5.2541,-5.2613,-5.27,-5.2757,-5.2842,-5.2978,-5.2997,-5.3036,-5.3048,-5.3057,-5.3069,-5.3143,-5.3161,-5.2971,-5.2971,-5.2971,0,0,-5.1982,-5.2046,-5.2099,-5.2225,-5.2281,-5.237,-5.2335,-5.2431,-5.2497,-5.2499,-5.2618,-5.2662,-5.2745,-5.2875,-5.2935,-5.2914,-5.3126,-5.3068,-5.3075,-5.3082,-5.3154,-5.3172,-5.3188,-5.2977,-5.2976,-5.2975,0,0,-5.21,-5.2158,-5.2256,-5.2314,-5.2401,-5.2438,-5.2461,-5.2548,-5.2578,-5.2698,-5.2702,-5.2781,-5.2931,-5.299,-5.3039,-5.3181,-5.3179,-5.3208,-5.3268,-5.334,-5.3355,-5.3368,-5.3418,-5.3435,-5.322,-5.322,-5.322,0,-5.2139,-5.2273,-5.2306,-5.2402,-5.2457,-5.2465,-5.2564,-5.2619,-5.2729,-5.2766,-5.2742,-5.2931,-5.2988,-5.3131,-5.3165,-5.3206,-5.3233,-5.3197,-5.335,-5.3364,-5.3377,-5.3424,-5.3443,-5.3223,-5.3223,-5.3223,-5.3222,0,-5.2316,-5.2409,-5.2478,-5.2584,-5.2647,-5.2744,-5.2792,-5.2852,-5.2866,-5.2904,-5.3027,-5.3095,-5.3193,-5.3229,-5.3243,-5.3375,-5.3359,-5.3343,-5.3298,-5.3397,-5.3442,-5.3461,-5.3227,-5.3226,-5.3225,-5.3225,0,0,-5.2447,-5.2572,-5.2596,-5.2644,-5.2742,-5.2814,-5.2912,-5.3008,-5.3058,-5.3135,-5.3217,-5.3344,-5.333,-5.3386,-5.3407,-5.3471,-5.3577,-5.3446,-5.3449,-5.3467,-5.3725,-5.3735,-5.3756,-5.3577,-5.3581,-5.3584,-5.3718,0,-5.2575,-5.2748,-5.2781,-5.2932,-5.3017,-5.3027,-5.3112,-5.318,-5.322,-5.3298,-5.3342,-5.3431,-5.3406,-5.3439,-5.3503,-5.3551,-5.3629,-5.3542,-5.3653,-5.3656,-5.3629,-5.378,-5.3791,-5.3914,-5.3736,-5.3739,-5.3741,0,-5.2746,-5.2826,-5.2985,-5.3071,-5.3108,-5.3184,-5.3275,-5.3351,-5.3429,-5.3453,-5.3516,-5.353,-5.3632,-5.3585,-5.3724,-5.3664,-5.3712,-5.3742,-5.3748,-5.3757,-5.3703,-5.3791,-5.3954,-5.3971,-5.3769,-5.3767,-5.3765,0,-5.2823,-5.2972,-5.3086,-5.3127,-5.323,-5.3283,-5.3329,-5.3404,-5.346,-5.354,-5.3576,-5.3668,-5.3717,-5.3787,-5.3825,-5.3787,-5.3962,-5.3918,-5.3983,-5.3982,-5.4017,-5.4014,-5.4187,-5.4052,-5.4052,-5.4051,-5.4051,0,-5.2961,-5.3057,-5.3122,-5.3192,-5.33,-5.3338,-5.3445,-5.3489,-5.3556,-5.3635,-5.3649,-5.3722,-5.377,-5.385,-5.3881,-5.3991,-5.4014,-5.4035,-5.4042,-5.4033,-5.403,-5.4063,-5.4054,-5.4056,-5.4055,-5.4054,-5.4054,0,-5.3064,-5.3112,-5.3237,-5.3325,-5.3349,-5.3425,-5.35,-5.3568,-5.3608,-5.3708,-5.3733,-5.3796,-5.3891,-5.3937,-5.4055,-5.4076,-5.42,-5.4202,-5.4173,-5.4175,-5.4238,-5.423,-5.4436,-5.4465,-5.4312,-5.4314,-5.4315,0,-5.3148,-5.3222,-5.3318,-5.3372,-5.3419,-5.3505,-5.3563,-5.3604,-5.3663,-5.3758,-5.3815,-5.3911,-5.3989,-5.4141,-5.4197,-5.4287,-5.429,-5.4356,-5.4304,-5.4292,-5.4289,-5.4283,-5.429,-5.4365,-5.4366,-5.4367,-5.4368,0,-5.329,-5.331,-5.3392,-5.3484,-5.3552,-5.3625,-5.3698,-5.3741,-5.3793,-5.3859,-5.3957,-5.4018,-5.4139,-5.4233,-5.4328,-5.4375,-5.438,-5.4385,-5.4404,-5.4395,-5.4374,-5.4384,-5.4197,-5.4379,-5.4378,-5.4377,-5.4377,-5.4376,-5.3385,-5.3451,-5.3529,-5.3621,-5.368,-5.3747,-5.3815,-5.3864,-5.3946,-5.4048,-5.4067,-5.4171,-5.4247,-5.4375,-5.4425,-5.4506,-5.4491,-5.452,-5.4527,-5.4533,-5.4535,-5.4363,-5.4524,-5.4523,-5.4523,-5.4523,-5.4523,0,-5.3527,-5.3577,-5.3661,-5.3762,-5.3834,-5.3834,-5.3914,-5.3974,-5.4065,-5.4136,-5.4214,-5.4326,-5.4418,-5.4482,-5.4575,-5.4628,-5.4633,-5.4651,-5.4646,-5.4657,-5.4544,-5.4517,-5.4646,-5.4646,-5.4646,-5.4645,-5.4645,-5.4645,-5.3608,-5.372,-5.375,-5.3891,-5.3941,-5.4043,-5.4088,-5.4151,-5.4208,-5.4332,-5.4409,-5.445,-5.4519,-5.4617,-5.4702,-5.4718,-5.4751,-5.477,-5.4785,-5.4678,-5.4665,-5.4653,-5.4627,-5.4777,-5.4777,-5.4891,-5.4892,-5.4893]},{"header":{"parameterUnit":"m.s-1","parameterCategory":1,"la1":30.2991,"la2":30.254,"lo1":-89.0895,"lo2":-89.0444,"dy":0.0017,"dx":0.0017,"nx":28,"ny":28,"refTime":"2024-04-27T03:00:00:Z","depth":0,"parameterNumber":3,"parameterNumberName":"V-component_of_WINDS"},"data":[0,0,0,0,0,0,0,0,0,0,0,0,0,0,0,0,0,0,0,0,0,0,0,0,0,0,0,0,0,0,0,0,0,0,0,0,0,0,0,0,0,0,0,0,0,0,0,0,0,0,0,0,0,0,0,0,0,0,4.4817,4.4817,0,4.4864,4.4865,4.4865,4.4821,4.4819,4.4817,4.4816,4.4861,4.4864,4.4866,0,0,0,0,0,0,0,0,0,0,0,0,0,4.4686,4.4689,4.4817,4.4817,4.4818,4.4864,4.4865,4.4865,4.4821,4.4819,4.4817,4.4815,4.486,4.4863,4.4867,0,0,0,0,0,0,0,0,0,0,0,0,0,4.4739,4.469,4.4817,4.4802,4.4801,4.4864,4.4865,4.4865,4.4822,4.4819,4.4816,4.4814,4.4859,4.4863,4.4867,4.4947,0,0,4.488,4.4882,0,0,0,0,0,0,0,0,4.4736,4.4744,4.4803,4.4803,4.4802,4.4834,4.4835,4.4893,4.4822,4.4814,4.4816,4.4812,4.4854,4.4858,4.4873,4.4949,4.4951,4.4881,4.4883,4.4885,4.4886,0,0,0,0,0,0,0,4.4733,4.4742,4.4835,4.4804,4.4803,4.4792,4.4796,4.4846,4.4848,4.4814,4.4811,4.4817,4.4853,4.4869,4.4874,4.4951,4.4881,4.4884,4.4887,4.4889,4.5096,4.5099,0,0,0,0,0,0,4.4731,4.4739,4.4834,4.4837,4.4762,4.4796,4.4801,4.4826,4.4847,4.4848,4.482,4.4815,4.4863,4.4869,4.4875,4.497,4.4885,4.4889,4.4892,4.5093,4.5097,4.51,0,0,0,0,0,0,4.4728,4.474,4.4832,4.4787,4.4798,4.4801,4.483,4.4829,4.4844,4.4851,4.4851,4.4836,4.4861,4.4869,4.493,4.4971,4.4891,4.4895,4.5089,4.5094,4.5098,4.516,0,0,0,0,0,0,4.4725,4.4739,4.477,4.4788,4.4801,4.4887,4.4832,4.4831,4.4852,4.4847,4.4867,4.4867,4.486,4.4924,4.4934,4.4975,4.4898,4.5086,4.5092,4.5097,4.5155,4.5166,4.5176,0,0,0,0,0,4.472,4.4784,4.4771,4.4783,4.4839,4.4889,4.4896,4.4887,4.4856,4.4886,4.4891,4.4867,4.4965,4.493,4.4941,4.4985,4.5083,4.509,4.5096,4.515,4.5164,4.5176,0,0,0,0,0,0,4.4769,4.4786,4.4772,4.4845,4.4866,4.4881,4.492,4.4902,4.4932,4.4925,4.4912,4.4917,4.4981,4.4989,4.495,4.5063,4.5019,4.5028,4.5056,4.5069,4.508,4.5076,4.4902,0,0,0,0,0,4.4789,4.4829,4.4841,4.4904,4.4915,4.4916,4.4937,4.4929,4.495,4.4958,4.4967,4.4988,4.5023,4.5047,4.508,4.5156,4.516,4.5191,4.5202,4.5211,4.5219,4.5261,4.5275,4.5121,4.5121,4.5121,0,0,4.4829,4.4843,4.4869,4.4914,4.493,4.4971,4.4924,4.4969,4.4999,4.4964,4.5023,4.503,4.5052,4.5121,4.5152,4.513,4.5263,4.522,4.5227,4.523,4.5269,4.5283,4.5296,4.5126,4.5125,4.5124,0,0,4.4923,4.4938,4.4992,4.5009,4.5034,4.5034,4.5047,4.5066,4.507,4.5129,4.5104,4.5139,4.5201,4.5218,4.5235,4.5337,4.5316,4.5349,4.5405,4.5446,4.5458,4.5468,4.5505,4.5518,4.5356,4.5357,4.5357,0,4.4969,4.5031,4.5022,4.507,4.509,4.5063,4.5117,4.5134,4.5168,4.5182,4.5157,4.5235,4.5248,4.5321,4.5346,4.5361,4.5375,4.5346,4.5457,4.5468,4.5477,4.5512,4.5526,4.536,4.536,4.536,4.5359,0,4.5087,4.5131,4.5171,4.5206,4.5232,4.5282,4.5281,4.5307,4.5297,4.53,4.536,4.5375,4.5411,4.5428,4.5417,4.55,4.5485,4.5459,4.5414,4.5496,4.5528,4.5542,4.5366,4.5365,4.5363,4.5362,0,0,4.5212,4.5243,4.5258,4.5274,4.53,4.5333,4.5383,4.5419,4.5442,4.5467,4.5508,4.5562,4.5539,4.5558,4.5549,4.5585,4.5666,4.5554,4.5555,4.5574,4.5758,4.5777,4.5793,4.5652,4.5655,4.5657,4.5756,0,4.5307,4.5395,4.5389,4.5471,4.5511,4.5486,4.553,4.555,4.5555,4.5589,4.5593,4.5632,4.5597,4.5609,4.5643,4.5649,4.5702,4.5642,4.569,4.5692,4.5685,4.581,4.583,4.5923,4.5768,4.5771,4.5772,0,4.5429,4.546,4.5547,4.5568,4.5585,4.5624,4.5658,4.5691,4.5714,4.5714,4.5737,4.5723,4.5773,4.5728,4.5796,4.5755,4.5774,4.578,4.5784,4.5787,4.5736,4.5816,4.5952,4.5966,4.5792,4.579,4.5789,0,4.5512,4.5575,4.5635,4.565,4.5676,4.5704,4.5716,4.5736,4.5759,4.5788,4.5803,4.5837,4.5856,4.5883,4.5878,4.5846,4.5949,4.5903,4.595,4.595,4.5972,4.5971,4.6112,4.5985,4.5985,4.5985,4.5985,0,4.5619,4.5673,4.5673,4.571,4.577,4.5763,4.5822,4.583,4.5849,4.5887,4.5867,4.5903,4.5896,4.5931,4.5928,4.5986,4.5994,4.5996,4.5994,4.5997,4.5997,4.6009,4.6003,4.5989,4.5988,4.5987,4.5987,0,4.5721,4.5723,4.5787,4.5807,4.5814,4.5857,4.5874,4.5909,4.5912,4.5961,4.5972,4.5977,4.6018,4.6016,4.6063,4.606,4.6131,4.6122,4.6124,4.6122,4.617,4.6165,4.6324,4.6345,4.6204,4.6206,4.6207,0,4.5789,4.583,4.5855,4.588,4.5894,4.5934,4.5958,4.5952,4.5978,4.6008,4.6039,4.6079,4.611,4.6177,4.6184,4.622,4.6211,4.6264,4.6216,4.6219,4.6212,4.621,4.6214,4.6274,4.6275,4.6276,4.6277,0,4.5909,4.5908,4.5944,4.598,4.601,4.6038,4.6063,4.6085,4.6082,4.6111,4.6154,4.6179,4.6227,4.6266,4.6301,4.6312,4.6295,4.6293,4.6306,4.6309,4.6309,4.631,4.615,4.6289,4.6288,4.6287,4.6286,4.6286,4.5996,4.6032,4.6055,4.6096,4.6115,4.614,4.6174,4.6183,4.6219,4.6258,4.6253,4.63,4.6323,4.6368,4.6382,4.6419,4.64,4.6419,4.6424,4.6428,4.6434,4.6303,4.6425,4.6425,4.6425,4.6425,4.6424,0,4.6115,4.6129,4.6167,4.6205,4.6237,4.6219,4.6247,4.6274,4.6317,4.634,4.6372,4.6421,4.646,4.6471,4.6508,4.6536,4.6529,4.6546,4.6544,4.6547,4.6448,4.6434,4.6551,4.6551,4.6551,4.6551,4.6551,4.6551,4.6181,4.6241,4.6244,4.6313,4.6327,4.6375,4.6392,4.6415,4.6434,4.649,4.6523,4.653,4.6549,4.6587,4.6622,4.6624,4.6639,4.6659,4.6658,4.6566,4.6553,4.6541,4.6527,4.6662,4.6663,4.6753,4.6754,4.6755]}]]